Estación municipal de St. Hilari Sacalm (La Selva, Guilleries)

Consulta los datos en tiempo real de la estación municipal de St. Hilari Sacalm





Hora UTC 13:40
Temperatura 13.2 ºC
Humedad 84.6 %
Presión 1013.2 hPa
Pluja 0.1 mm
Velocidad viento 1.3 km/h
Dirección viento N
Radiación solar 207.9 W/m²

Webcam

Datos diarios 2026-05-09



Hora UTC (invierno +1h; verano +2h)
Temperatura (ºC) Humedad (%) Presión (hPa) Velocidad viento (km/h) Precipitación (mm) Radiación solar (W/m²)
Hora UTC Aire Humedad Presión Vel. Dir. Vel. Max Dir. Intent. máx 5 min. Rad. Sol.
00:05 7.5 95.5 1015.4 0.0 NNE 0.0 W 0.0 0.1
00:10 7.5 95.5 1015.4 0.0 NNE 0.0 SSW 0.0 0.1
00:15 7.3 95.4 1015.4 0.0 NNE 0.0 W 0.0 0.1
00:20 7.4 95.9 1015.4 0.3 WNW 8.8 NW 0.0 0.1
00:25 7.6 96.2 1015.4 0.1 NNW 6.1 N 0.0 0.1
00:30 7.8 96.1 1015.5 0.4 SW 8.8 SW 0.0 0.1
00:35 7.8 96.0 1015.4 0.0 NNE 0.0 W 0.0 0.1
00:40 7.9 96.1 1015.4 0.0 NNE 0.0 WNW 0.0 0.1
00:45 8.0 96.1 1015.3 1.4 SSW 11.5 SSW 0.0 0.1
00:50 8.0 96.0 1015.3 3.2 WNW 11.5 NW 0.0 0.1
00:55 8.2 96.2 1015.4 0.5 NW 8.8 WNW 0.0 0.1
01:00 8.4 96.2 1015.4 0.0 NNE 0.0 WNW 0.0 0.1
01:05 8.3 95.7 1015.3 0.0 NNE 0.0 WNW 0.0 0.1
01:10 8.2 95.6 1015.3 0.0 NNE 0.0 WSW 0.0 0.1
01:15 8.2 95.6 1015.3 0.0 WSW 3.4 WSW 0.0 0.1
01:20 8.5 96.2 1015.3 0.3 WNW 6.1 NW 0.0 0.1
01:25 8.7 96.1 1015.3 0.1 WNW 3.4 WNW 0.0 0.1
01:30 8.9 95.9 1015.2 0.1 WNW 3.4 WNW 0.0 0.1
01:35 8.8 95.4 1015.2 0.3 NW 6.1 WNW 0.0 0.1
01:40 8.7 95.4 1015.1 0.0 NNE 0.0 W 0.0 0.1
01:45 8.7 95.5 1015.1 0.0 NNE 0.0 W 0.0 0.1
01:50 8.7 95.6 1015.1 0.3 WNW 6.1 WNW 0.0 0.1
01:55 8.7 95.5 1015.0 0.0 NNE 0.0 NNW 0.0 0.1
02:00 8.7 95.7 1015.0 0.3 WNW 8.8 W 0.0 0.1
02:05 8.8 95.8 1014.9 0.3 WNW 11.5 NW 0.0 0.1
02:10 9.1 96.2 1014.9 0.8 WNW 8.8 W 0.0 0.1
02:15 9.2 96.1 1014.8 1.5 NW 11.5 NW 0.0 0.1
02:20 9.2 95.8 1014.7 3.8 NNW 14.2 NW 0.0 0.1
02:25 9.4 95.8 1014.7 0.5 NNW 8.8 WNW 0.0 0.1
02:30 9.3 95.5 1014.6 0.7 NNW 11.5 NW 0.0 0.1
02:35 9.3 95.5 1014.5 2.5 NW 14.2 NW 0.0 0.1
02:40 9.4 95.3 1014.5 2.3 NW 11.5 WNW 0.0 0.1
02:45 9.3 95.1 1014.4 0.0 WNW 3.4 WNW 0.0 0.1
02:50 9.3 94.9 1014.4 0.0 NNE 0.0 WNW 0.0 0.1
02:55 9.2 95.0 1014.5 0.3 WSW 6.1 SW 0.0 0.1
03:00 9.1 95.2 1014.5 0.0 NNE 0.0 W 0.0 0.1
03:05 9.1 94.9 1014.4 0.0 NNE 0.0 SW 0.0 0.1
03:10 8.9 94.8 1014.4 0.0 W 3.4 W 0.0 0.1
03:15 8.9 94.9 1014.3 0.0 NNE 0.0 W 0.0 0.1
03:20 8.8 94.9 1014.3 0.0 NNE 0.0 WSW 0.0 0.1
03:25 8.7 94.9 1014.4 0.0 NNE 0.0 SSW 0.0 0.1
03:30 8.5 94.7 1014.3 0.0 WSW 3.4 WSW 0.0 0.1
03:35 8.4 94.9 1014.3 0.0 NNE 0.0 SSW 0.0 0.1
03:40 8.4 95.0 1014.3 0.1 WSW 6.1 WSW 0.0 0.1
03:45 8.5 95.3 1014.5 0.0 NNE 0.0 SW 0.0 0.1
03:50 8.5 95.3 1014.4 0.0 NNE 0.0 SW 0.0 0.1
03:55 8.4 95.3 1014.4 0.0 NNE 0.0 SW 0.0 0.1
04:00 8.4 95.3 1014.4 0.0 SW 3.4 SW 0.0 0.1
04:05 8.3 95.2 1014.4 0.0 NNE 0.0 WSW 0.0 0.1
04:10 8.3 95.3 1014.3 0.0 NNE 0.0 WSW 0.0 0.1
04:15 8.3 95.5 1014.3 0.0 NNE 0.0 WSW 0.0 0.1
04:20 8.4 95.7 1014.3 0.0 NNE 0.0 WSW 0.0 0.2
04:25 8.5 95.6 1014.4 0.0 NNE 0.0 SW 0.0 0.5
04:30 8.6 95.5 1014.3 0.0 NNE 0.0 SSW 0.0 1.7
04:35 8.5 95.3 1014.4 0.0 NNE 0.0 SSW 0.0 1.6
04:40 8.5 95.2 1014.4 0.0 NNE 0.0 SSW 0.0 1.5
04:45 8.6 95.3 1014.5 0.0 NNE 0.0 SSW 0.0 2.3
04:50 8.7 95.4 1014.5 0.0 NNE 0.0 SSW 0.0 3.9
04:55 8.8 95.3 1014.5 0.0 NNE 0.0 S 0.0 4.9
05:00 8.8 95.2 1014.5 0.0 NNE 0.0 S 0.0 5.9
05:05 8.9 95.2 1014.5 0.0 NNE 0.0 WSW 0.0 7.6
05:10 9.0 95.1 1014.5 0.0 NNE 0.0 WSW 0.0 11.0
05:15 9.1 95.1 1014.5 0.0 NNE 0.0 SW 0.0 14.2
05:20 9.2 95.1 1014.5 0.0 NNE 0.0 SW 0.0 16.0
05:25 9.3 95.1 1014.6 0.0 NNE 0.0 SW 0.0 15.8
05:30 9.5 95.0 1014.6 0.0 NNE 0.0 SSW 0.0 13.3
05:35 9.5 94.8 1014.6 0.0 NNE 0.0 SSW 0.0 11.7
05:40 9.6 94.8 1014.7 0.0 NNE 0.0 SSW 0.0 9.1
05:45 9.7 94.8 1014.7 0.0 NNE 0.0 SSW 0.0 12.4
05:50 9.8 94.7 1014.6 0.0 NNE 0.0 WSW 0.0 20.8
05:55 9.9 94.9 1014.6 0.0 NNE 0.0 W 0.0 24.2
06:00 10.0 95.0 1014.6 0.0 NNE 0.0 W 0.0 21.3
06:05 10.1 95.0 1014.6 0.0 NNE 0.0 W 0.0 25.5
06:10 10.2 94.9 1014.6 0.0 NNE 0.0 W 0.0 30.4
06:15 10.3 94.9 1014.5 0.0 NNE 0.0 W 0.0 37.1
06:20 10.4 95.0 1014.5 0.0 NNE 0.0 W 0.0 46.4
06:25 10.5 95.0 1014.6 0.0 NNE 0.0 W 0.0 54.6
06:30 10.7 94.9 1014.6 0.0 NNE 0.0 W 0.0 59.5
06:35 10.8 94.8 1014.7 0.0 NNE 0.0 W 0.0 69.9
06:40 11.0 94.7 1014.6 0.0 NNE 0.0 W 0.0 109.6
06:45 11.3 94.8 1014.5 0.0 NNE 0.0 W 0.0 164.7
06:50 11.6 94.7 1014.5 0.0 NNE 0.0 NNW 0.0 243.1
06:55 12.1 94.3 1014.4 0.0 NNE 0.0 N 0.0 250.6
07:00 12.4 93.5 1014.4 0.0 NNE 0.0 WNW 0.0 243.9
07:05 12.4 92.6 1014.4 0.1 NW 3.4 NW 0.0 261.1
07:10 12.6 92.0 1014.4 0.3 NW 6.1 NW 0.0 276.6
07:15 12.8 91.5 1014.4 0.0 NNE 0.0 NW 0.0 289.5
07:20 13.2 90.5 1014.3 0.0 NNE 0.0 NNE 0.0 283.1
07:25 13.5 88.9 1014.3 0.0 NNE 0.0 NE 0.0 324.0
07:30 13.7 85.8 1014.4 1.0 ENE 8.8 E 0.0 309.8
07:35 13.6 83.4 1014.4 4.3 ENE 14.2 ENE 0.0 340.8
07:40 13.3 80.5 1014.5 6.7 ENE 14.2 NNE 0.0 258.7
07:45 13.2 79.7 1014.5 5.6 ENE 16.9 ENE 0.0 277.3
07:50 13.2 79.6 1014.5 6.4 ENE 14.2 ENE 0.0 331.8
07:55 13.3 81.5 1014.3 5.2 NE 14.2 ENE 0.0 360.0
08:00 13.4 82.5 1014.2 2.9 NE 11.5 NNE 0.0 390.4
08:05 13.6 81.5 1014.2 7.0 ENE 14.2 ENE 0.0 315.9
08:10 13.4 81.5 1014.2 7.6 ENE 14.2 ENE 0.0 296.4
08:15 13.3 80.7 1014.2 6.9 E 14.2 E 0.0 295.4
08:20 13.3 80.5 1014.2 3.2 NE 14.2 ENE 0.0 256.5
08:25 13.3 82.5 1014.1 4.0 ENE 11.5 E 0.0 227.0
08:30 13.3 84.2 1014.1 2.0 E 14.2 ENE 0.0 298.9
08:35 13.5 85.0 1014.0 3.9 ENE 16.9 E 0.0 269.2
08:40 13.4 84.6 1014.0 4.9 ENE 14.2 E 0.0 236.8
08:45 13.3 84.8 1014.0 3.5 ESE 11.5 E 0.0 260.8
08:50 13.3 84.3 1014.0 4.8 ENE 16.9 ENE 0.0 206.7
08:55 13.3 84.5 1014.0 0.2 NE 6.1 NE 0.0 258.7
09:00 13.4 84.2 1014.1 2.4 E 11.5 E 0.0 263.5
09:05 13.5 82.6 1014.2 5.6 E 16.9 ESE 0.0 220.6
09:10 13.3 82.3 1014.3 0.0 NE 3.4 NE 0.0 227.0
09:15 13.4 83.0 1014.3 0.0 NNE 0.0 ENE 0.0 271.0
09:20 13.5 82.7 1014.2 0.3 ENE 8.8 E 0.0 192.9
09:25 13.5 82.4 1014.2 4.2 E 14.2 ENE 0.0 155.7
09:30 13.2 82.2 1014.2 0.7 NE 8.8 NNE 0.0 202.1
09:35 13.3 82.3 1014.3 0.1 E 3.4 E 0.0 277.8
09:40 13.7 82.4 1014.4 2.7 E 11.5 ENE 0.0 353.0
09:45 13.9 81.3 1014.5 1.6 ENE 11.5 ENE 0.0 214.2
09:50 13.7 81.2 1014.6 4.1 E 14.2 ENE 0.0 245.0
09:55 13.8 81.6 1014.6 1.2 E 11.5 E 0.0 310.2
10:00 13.7 80.6 1014.6 7.6 E 14.2 E 0.0 205.2
10:05 13.7 80.5 1014.6 3.8 ENE 14.2 ENE 0.0 245.7
10:10 13.8 80.6 1014.8 2.9 ENE 11.5 ENE 0.0 240.2
10:15 14.0 80.0 1014.7 0.6 E 8.8 ESE 0.0 279.1
10:20 13.9 79.3 1014.7 2.8 ENE 11.5 NE 0.0 148.6
10:25 13.7 80.7 1014.6 5.1 E 16.9 ENE 0.0 140.9
10:30 13.6 82.5 1014.6 6.1 E 14.2 ENE 0.0 219.7
10:35 13.6 82.5 1014.5 6.7 E 14.2 E 0.0 201.4
10:40 13.8 82.6 1014.6 5.0 ENE 14.2 E 0.0 163.4
10:45 13.7 83.1 1014.6 4.8 ENE 14.2 E 0.0 108.4
10:50 13.5 84.0 1014.5 6.5 ENE 16.9 ESE 0.0 156.5
10:55 13.5 83.7 1014.6 9.1 E 22.3 E 0.0 306.9
11:00 13.7 82.9 1014.6 7.9 ENE 14.2 E 0.0 283.9
11:05 13.9 82.9 1014.5 1.6 E 11.5 ENE 0.0 295.3
11:10 14.2 82.6 1014.4 2.4 ENE 14.2 ENE 0.0 246.5
11:15 14.1 80.8 1014.5 8.1 ENE 14.2 ENE 0.0 207.6
11:20 13.8 82.3 1014.5 9.9 ENE 19.6 E 0.0 190.4
11:25 13.6 84.4 1014.4 6.4 E 16.9 E 0.0 201.4
11:30 13.4 85.2 1014.6 2.6 ENE 14.2 E 0.0 123.4
11:35 13.4 85.6 1014.7 1.1 ENE 11.5 NNE 0.0 95.4
11:40 13.2 86.4 1014.7 3.4 ENE 14.2 E 0.0 88.3
11:45 13.0 87.8 1014.7 0.6 ENE 11.5 E 0.0 63.3
11:50 12.8 88.5 1014.5 0.1 E 6.1 ENE 0.0 44.3
11:55 12.7 89.4 1014.5 0.0 NNE 0.0 E 0.0 46.7
12:00 12.6 90.1 1014.5 0.0 NNE 0.0 SE 0.1 52.3
12:05 12.5 90.7 1014.5 0.0 NNE 0.0 ENE 0.0 50.8
12:10 12.5 91.1 1014.4 0.0 NNE 0.0 ESE 0.0 47.6
12:15 12.5 91.4 1014.3 0.0 NNE 0.0 E 0.0 76.5
12:20 12.6 91.7 1014.1 0.0 NNE 0.0 ENE 0.0 206.8
12:25 13.0 92.4 1013.9 0.0 NNE 0.0 NNW 0.0 295.2
12:30 13.4 91.7 1013.8 0.0 NNE 0.0 NNE 0.0 153.5
12:35 13.3 90.8 1013.7 0.0 NNE 0.0 NNE 0.0 108.1
12:40 13.2 90.4 1013.6 0.0 NNE 0.0 NNW 0.0 60.5
12:45 13.0 90.4 1013.7 0.0 NNE 0.0 NNE 0.0 74.8
12:50 12.9 90.6 1013.6 0.0 NNE 0.0 NE 0.0 127.7
12:55 12.9 90.6 1013.5 0.0 NNE 0.0 ENE 0.0 85.7
13:00 12.9 90.4 1013.3 0.8 NNE 8.8 NE 0.0 70.5
13:05 12.7 90.2 1013.3 1.4 NE 11.5 NNE 0.0 67.5
13:10 12.6 90.4 1013.3 1.3 NNE 14.2 NE 0.0 56.3
13:15 12.6 90.6 1013.3 4.3 NNE 14.2 NNE 0.0 88.2
13:20 12.6 90.6 1013.3 0.4 NNE 6.1 N 0.0 182.1
13:25 12.7 89.5 1013.2 4.0 NNE 11.5 NE 0.0 219.1
13:30 12.9 87.9 1013.2 3.1 NE 14.2 ENE 0.0 228.5
13:35 13.0 85.4 1013.1 6.0 NE 14.2 NNE 0.0 217.1
13:40 13.2 84.6 1013.2 1.3 N 11.5 N 0.0 207.9
Máxima 14.2 96.2 1015.5 9.9 ENE 22.3 E 0.1 390.4
Mínima 7.3 79.3 1013.1
Total 0.1